Location: Hoyos de Miguel Muñoz
(40.3924°N, 5.0671°W)
Time: 21:15:14
(UTC+00:00)

Daily predictions for brighter satellites

Satellite Brightness Start Highest point End
(mag) Time Altitude Azimuth Time Altitude Azimuth Time Altitude Azimuth
SJ-11-01 4.3 17:18:12 10° SSE 17:22:51 86° ENE 17:27:31 10° NNW
Lacrosse 5 2.7 17:22:20 10° S 17:26:51 34° SE 17:31:24 10° ENE
Cosmos-2242 3.5 17:24:43 10° SSE 17:28:47 41° E 17:32:53 10° NNE
Cosmos 2151 3.3 17:26:37 10° NNW 17:30:52 71° W 17:35:06 10° S
Cosmos 2082 4.4 17:25:41 10° SW 17:31:11 57° WNW 17:36:43 10° NNE
Cosmos 2058 Rocket 3.8 17:27:23 10° SSW 17:31:45 57° W 17:36:07 10° N
CZ-2C R/B 3.1 17:32:17 10° SW 17:33:18 12° SSW 17:34:19 10° S
Lacrosse 4 Rocket 2.2 17:30:09 10° N 17:34:02 31° NE 17:37:49 10° ESE
COSMO-SKYMED 1 3.9 17:31:01 10° NE 17:34:14 20° E 17:37:26 10° SE
CZ-2D R/B 3.7 17:33:01 10° S 17:36:40 64° W 17:40:18 10° NNW
APEX 2.6 17:33:57 10° SSW 17:37:00 56° ESE 17:39:47 10° NNE
Cosmos 2344 3.6 17:31:15 10° SSW 17:39:04 63° ESE 17:46:15 10° NE
Cosmos 2221 4.2 17:37:34 10° ESE 17:39:37 13° E 17:41:02 12° ENE
Cosmos 1812 2.7 17:38:20 10° S 17:41:55 53° E 17:45:31 10° NNE
Cosmos 1818 3.7 17:37:47 10° SSW 17:43:05 60° ESE 17:48:28 10° NE
USA 234 3.3 17:38:01 10° NE 17:44:33 72° SE 17:51:05 10° SW
USA 276 3.6 17:44:38 10° WNW 17:46:24 18° NNW 17:48:03 11° NNE
CZ-2C R/B 3.2 17:44:43 10° S 17:48:14 61° W 17:51:47 10° NNW
AQUARIUS 4.1 17:44:03 10° SSE 17:48:27 64° ENE 17:52:53 10° N
ERS-2 4.4 17:49:46 10° SSW 17:52:08 22° W 17:54:30 10° NW
Tiangong 1.6 17:52:39 10° SW 17:52:41 10° SW 17:52:42 10° SW
H-2A R/B 3.3 17:53:43 10° SW 17:55:33 17° S 17:58:36 10° SE
[s.n.58448] 2.3 17:54:05 10° WNW 17:56:40 81° SSW 17:58:25 18° ESE
Cosmos 2263 Rocket 3.4 17:52:09 10° SW 17:57:20 40° WNW 18:02:34 10° N
Cosmos 1844 Rocket 3.1 17:52:11 10° S 17:57:20 41° ESE 18:02:02 12° NE
USA 307 2.6 17:54:57 10° NW 17:58:48 60° NE 18:02:21 11° ESE
[s.n.58449] 2.3 17:56:36 10° WNW 17:59:07 78° SSW 18:00:40 20° ESE
CORIOLIS 4.3 17:54:13 10° S 17:59:33 80° WSW 18:04:57 10° NNW
[s.n.58459] 2.4 17:57:55 10° WNW 18:00:31 77° SSW 18:02:07 20° ESE
[s.n.58458] 2.4 17:58:38 10° WNW 18:01:14 76° SSW 18:02:49 21° ESE
[s.n.58456] 2.4 17:59:28 10° WNW 18:02:04 75° SSW 18:03:37 21° ESE
[s.n.58447] 2.4 17:59:42 10° WNW 18:02:15 74° SSW 18:03:45 22° ESE
[s.n.58457] 2.4 18:00:14 10° WNW 18:02:51 74° SSW 18:04:21 22° ESE
Cosmos 1092 Rocket 4.1 17:57:05 10° SSE 18:02:58 51° E 18:08:53 10° NNE
Nadezhda 4 Rocket 4.0 17:56:50 10° S 18:02:59 84° W 18:09:08 10° N
[s.n.58455] 2.5 18:01:00 10° WNW 18:03:38 73° SSW 18:05:06 22° ESE
[s.n.58454] 2.5 18:01:47 10° WNW 18:04:23 72° SSW 18:05:51 23° ESE
Cosmos 1933 3.7 18:00:41 10° SSE 18:04:26 41° E 18:07:55 12° NNE
[s.n.58453] 2.5 18:02:35 10° WNW 18:05:11 71° SSW 18:06:36 23° ESE
Cosmos 2227 4.3 18:00:07 10° SSW 18:05:52 82° WNW 18:11:40 10° NNE
[s.n.58452] 2.5 18:03:18 10° WNW 18:05:55 70° SSW 18:07:18 24° ESE
[s.n.58451] 2.5 18:04:06 10° WNW 18:06:42 69° SSW 18:08:03 24° ESE
[s.n.58450] 2.6 18:04:51 10° WNW 18:07:28 68° SSW 18:08:47 25° ESE
ADEOS 4.2 18:04:22 10° SE 18:08:58 33° ENE 18:13:35 10° N
[s.n.58446] 2.6 18:07:11 10° WNW 18:09:48 66° SSW 18:11:01 27° SE
[s.n.58445] 2.7 18:07:59 10° WNW 18:10:36 65° SSW 18:11:48 27° SE
Cosmos 1666 4.2 18:07:22 10° NNW 18:10:38 36° W 18:13:53 10° SSW
Cosmos 1140 Rocket 3.4 18:05:35 10° NNW 18:10:46 83° ENE 18:15:53 10° SSE
[s.n.58444] 2.7 18:08:46 10° WNW 18:11:24 64° SSW 18:12:33 28° SE
[s.n.58443] 2.7 18:09:31 10° WNW 18:12:09 63° SSW 18:13:16 29° SE
Meteor 1-20 Rocket 4.2 18:06:32 10° N 18:12:10 87° E 18:17:51 10° S
Cosmos 1624 Rocket 4.4 18:07:38 10° S 18:12:27 39° ESE 18:15:39 19° NE
[s.n.58442] 2.7 18:10:22 10° WNW 18:12:59 62° SSW 18:14:04 29° SE
[s.n.58441] 2.8 18:11:11 10° WNW 18:13:47 61° SSW 18:14:51 30° SE
[s.n.58440] 2.8 18:11:54 10° WNW 18:14:31 60° SSW 18:15:33 31° SE
BREEZE-M DEB (TANK) 3.5 18:13:54 10° NW 18:15:04 13° N 18:15:04 13° N
[s.n.58439] 2.8 18:12:43 10° WNW 18:15:20 60° SSW 18:16:20 31° SE
Meteor 1-31 Rocket 3.6 18:11:47 10° S 18:15:21 50° W 18:19:00 10° NNW
[s.n.58437] 2.8 18:13:30 10° WNW 18:16:06 59° SSW 18:17:05 32° SE
[s.n.58438] 2.8 18:14:16 10° WNW 18:16:53 58° SSW 18:17:50 32° SE
CBERS 1 LM4 rocket 4.3 18:13:58 10° SSE 18:18:42 60° ENE 18:23:22 10° N
USA 306 2.8 18:19:35 10° WNW 18:21:32 33° SW 18:22:14 25° S
SKYMED 2 3.5 18:18:11 10° NNE 18:22:31 69° E 18:26:50 10° S
Cosmos 1603 3.6 18:17:13 10° NNW 18:22:54 74° ENE 18:28:31 10° SSE
Cosmos 1428 Rocket 4.5 18:16:57 10° S 18:23:16 90° WNW 18:29:35 10° N
Cosmos 192 4.2 18:20:01 10° S 18:24:52 74° ESE 18:28:35 17° NNE
SL-08 R/B 3.3 18:25:44 19° NNE 18:28:57 55° E 18:33:31 10° S
USA 305 2.5 18:26:07 10° NW 18:29:59 89° NE 18:31:45 30° SE
Meteor 2-17 Rocket 4.4 18:25:22 10° S 18:31:30 86° E 18:37:39 10° N
RESURS DK-1 4.5 18:31:09 10° N 18:31:56 14° N 18:31:56 14° N
Cosmos 1782 3.0 18:30:40 10° SSW 18:34:32 68° W 18:38:16 11° N
CZ-4B R/B 3.7 18:30:52 10° S 18:35:56 73° WSW 18:40:56 10° NNW
SL-8 R/B 3.7 18:31:32 10° WNW 18:36:19 80° SSW 18:38:57 26° SE
Cosmos 1515 4.4 18:34:45 10° SSE 18:37:02 33° SE 18:37:02 33° SE
Helios 1A 4.0 18:36:11 10° N 18:40:09 45° WNW 18:44:05 10° SW
Cosmos 676 Rocket 4.5 18:35:18 10° N 18:40:05 38° ENE 18:40:05 38° ENE
NOAA 6 4.1 18:39:11 10° S 18:44:19 79° WSW 18:49:28 10° NNW
Cosmos 1943 4.2 18:41:13 10° NW 18:46:37 48° WSW 18:52:00 10° S
EO 1 Delta rocket 4.4 18:40:29 10° SSE 18:47:26 64° ENE 18:52:54 10° N
JB-3 4.2 18:46:16 34° N 18:47:51 80° WNW 18:51:38 10° SSW
CZ-4B DEB 4.3 18:53:03 44° ESE 18:54:03 49° ENE 18:59:23 10° N
ISS -1.1 18:52:40 10° W 18:55:11 20° SW 18:57:35 11° S
ATLAS 2AS CENTAUR R/B 2.8 18:48:38 10° NNW 18:55:17 50° NE 18:56:38 44° E
ATLAS CENTAUR R/B 3.6 18:50:09 10° NW 18:55:24 66° SW 19:05:42 10° SSE
Cosmos 407 Rocket 4.3 18:51:14 10° NNW 18:56:12 51° WSW 19:01:08 10° S
Cosmos 1241 Rocket 4.4 18:51:11 10° SSW 18:57:37 90° NNW 19:00:35 34° NNE
Radarsat Rocket 4.3 18:54:09 10° S 18:59:54 66° WSW 19:05:53 10° NNW
SL-4 R/B 4.1 18:57:34 10° S 18:58:06 13° S 18:58:06 13° S
Cosmos 220 Rocket 3.9 18:59:41 10° NNW 19:03:59 80° WSW 19:04:31 66° S
Cosmos 2056 Rocket 3.9 19:00:56 10° SSW 19:06:15 66° WNW 19:09:06 28° N
Cosmos 1844 4.2 19:03:32 10° SW 19:09:13 60° WNW 19:12:19 27° N
Lacrosse 5 2.8 19:04:57 10° WSW 19:09:44 42° NW 19:10:56 36° N
COSMOS 2455 2.7 19:03:53 10° SSW 19:09:47 65° ESE 19:10:14 63° E
COSMO-SKYMED 1 4.1 19:06:43 11° N 19:10:28 34° WNW 19:14:23 10° SW
Cosmos 1954 Rocket 3.8 19:05:43 10° NNW 19:11:00 84° ENE 19:11:51 63° SSE
Timation 2 Rocket 4.4 19:06:24 10° SW 19:12:14 55° WNW 19:15:41 25° N
Lacrosse 4 Rocket 3.8 19:08:51 10° NW 19:12:16 23° WSW 19:15:36 10° SSW
Cosmos 2221 3.5 19:12:29 10° SSW 19:16:32 45° W 19:17:46 35° NW
SME Rocket 4.1 19:17:22 10° SSE 19:22:34 84° WSW 19:30:41 10° NNW
Cosmos 1553 Rocket 4.0 19:20:26 10° N 19:26:43 76° W 19:32:53 10° S
USA 234 4.2 19:24:56 30° NNE 19:27:16 39° NNW 19:33:13 10° W
Meteor 2-6 Rocket 4.3 19:27:33 10° S 19:33:29 84° W 19:33:30 84° W
Cosmos 1844 Rocket 4.4 19:36:34 10° WSW 19:41:19 28° NW 19:43:44 21° NNW
ATLAS 2AS CENTAUR R/B 4.3 20:40:02 10° NW 20:44:08 28° W 20:44:08 28° W
